Back to catalog

STARLINK-2667

AliveCommunicationsVLEO
NORAD 48663·PAYLOAD·🇺🇸 United States

Launched May 26, 2021 from Cape Canaveral Space Force Station

Loading…

Next Passes (next 24 hours)

TLE

FreshSource: CelesTrak SupGP

Epoch: Sep 14, 2026, 14:00 UTC

1 48663C 21044AB  26257.58381944  .00049493  00000+0  15915-2 0  2570
2 48663  53.1589 304.8268 0001407  76.1203 242.6944 15.31677570    16

Track STARLINK-2667 in real time with AllMySat

Download on the App Store